User: anonymous   Login
Location: Unspecified
(0.0000°N, 0.0000°E)
Time: 01:54:07
(UTC+00:00)
Language:

STARLINK-4660 - Orbit

View from above orbital plane
View from above orbital plane
View from above satellite
View from above satellite

Ground track
Ground track

The orbit is defined by the following mean orbital elements,

1 53609U          26145.55681095 +.00000000 +00000-0 +58446-4 0 00004
2 53609  53.2111 253.7482 0001097  87.5378 272.5740 15.08838535    07
Epoch (UTC): 25 May 2026 13:21:48
Eccentricity: 0.0001097
inclination: 53.2111°
perigee height: 539 km
apogee height: 541 km
right ascension of ascending node: 253.7482°
argument of perigee: 87.5378°
revolutions per day: 15.08838535
mean anomaly at epoch: 272.5740°

The dashed part of the orbit path shows where the satellite is in the earth's shadow,  

DLR